[Iaude] MPEC L78: 2024 LQ1 [a=0.95,e=0.14,i=8.7,H=25.5]
    mpec at cfa.harvard.edu 
    mpec at cfa.harvard.edu
       
    Fri Jun  7 03:47:44 EDT 2024
    
    
  
M.P.E.C. 2024-L78                                  Issued 2024 June 7, 07:46 UT
     The Minor Planet Electronic Circulars contain information on unusual
         minor planets, routine data on comets and natural satellites,
         and occasional editorial announcements.  They are published
    on behalf of Division F of the International Astronomical Union by the
          Minor Planet Center, Smithsonian Astrophysical Observatory,
                          Cambridge, MA 02138, U.S.A.
			  
             Prepared using the Tamkin Foundation Computer Network
                              MPC at CFA.HARVARD.EDU
            URL https://www.minorplanetcenter.net/    ISSN 1523-6714
                                    2024 LQ1                                    
Observations:
     K24L01Q*KC2024 06 06.01986 13 04 33.48 -30 51 31.9          19.6 rqEL078X74
     K24L01Q KC2024 06 06.02505 13 04 39.01 -30 49 55.1          19.1 rqEL078X74
     K24L01Q KC2024 06 06.03005 13 04 44.32 -30 48 21.6          19.5 rqEL078X74
     K24L01Q KC2024 06 06.91992 13 21 32.26 -26 21 57.9          19.7 rqEL078X74
     K24L01Q KC2024 06 06.92291 13 21 35.02 -26 21 06.4          19.4 rqEL078X74
     K24L01Q KC2024 06 06.92575 13 21 37.61 -26 20 17.5          19.1 rqEL078X74
     K24L01Q KC2024 06 06.93026 13 21 41.66 -26 18 59.7          19.1 rqEL078X74
     K24L01Q KC2024 06 06.93331 13 21 44.41 -26 18 08.0          19.3 rqEL078X74
     K24L01Q KC2024 06 06.93616 13 21 46.84 -26 17 18.4          19.2 rqEL078X74
     K24L01Q KB2024 06 07.04039713 23 16.719-25 47 13.61         19.8 VZEL078Y05
     K24L01Q KB2024 06 07.04761213 23 23.122-25 45 06.42         19.6 VZEL078Y05
     K24L01Q KB2024 06 07.05471213 23 29.418-25 43 00.85         19.6 VZEL078Y05
     K24L01Q KC2024 06 07.31411713 28 00.912-24 27 17.93         19.8 GVEL078474
     K24L01Q KC2024 06 07.31513013 28 01.781-24 27 00.97         19.7 GVEL078474
     K24L01Q KC2024 06 07.31614013 28 02.654-24 26 44.45         19.7 GVEL078474
     K24L01Q KC2024 06 07.31714913 28 03.538-24 26 27.49         19.7 GVEL078474
Observer details:
474 Mount John Observatory, Lake Tekapo.  Observers A. C. Gilmore, P. M.
    Kilmartin.  Measurer P. M. Kilmartin.  1.0-m f/7.7 Reflector + CCD.
X74 Observatorio Campo dos Amarais.  Observer L. S. Amaral.  0.31-m f/3.4
    Newtonian + CCD.
Y05 SONEAR Wykrota-CEAMIG, Serra da Piedade.  Observers C. Jacques, A.
    Caetano, E. Pimentel.  Measurer C. Jacques.  0.45-m f/2.9 reflector + CMO.
Orbital elements:
2024 LQ1                                                 Earth MOID = 0.0198 AU
Epoch 2024 Mar. 31.0 TT = JDT 2460400.5                 MPC                     
M  46.79604              (2000.0)            P               Q                  
n   1.05698054     Peri.  225.23787     -0.54318804     -0.82654991             
a   0.9544607      Node   258.20642     +0.80661006     -0.46494475             
e   0.1432430      Incl.    8.66754     +0.23308146     -0.31724064             
P   0.93           H   25.54          G   0.15           U   6                  
Residuals in seconds of arc
240606 X74  0.3+  0.1+    240606 X74  0.4+  0.5+    240607 474  0.0   0.1+
240606 X74  0.1+  0.0     240606 X74  0.5+  0.1-    240607 474  0.1-  0.1+
240606 X74  0.4-  0.1-    240606 X74  1.2-  0.6+    240607 474  0.1-  0.2-
240606 X74  0.5-  0.6-    240607 Y05  0.1+  0.1-    240607 474  0.1+  0.0
240606 X74  0.2+  0.3-    240607 Y05  0.1+  0.1-
240606 X74  0.6+  0.0     240607 Y05  0.1-  0.2+
Ephemeris:
2024 LQ1                 a,e,i = 0.95, 0.14, 9                   q = 0.8177
Date    TT    R. A. (2000) Decl.     Delta      r    Elong.  Phase     V
2024 05 08    04 40 50.6 -37 14 13   0.08919 0.9667    59.2   116.2    24.8
...
2024 05 23    06 05 02.1 -50 09 04   0.04534 1.0024    75.9   101.5    22.5
...
2024 05 31    09 43 34.4 -55 29 13   0.02801 1.0197   101.3    77.1    20.5
...
2024 06 06    13 04 14.5 -30 57 03   0.02725 1.0318   128.0    50.8    19.7
2024 06 07    13 22 44.4 -25 58 44   0.02854 1.0337   130.5    48.2    19.7
2024 06 08    13 38 13.9 -21 22 30   0.03016 1.0356   132.3    46.5    19.8
...
2024 06 14    14 34 06.5 -02 39 02   0.04439 1.0463   132.8    45.5    20.6
...
2024 06 22    15 07 52.8 +07 48 23   0.06867 1.0590   127.0    50.0    21.7
...
2024 07 07    15 39 57.3 +13 34 59   0.1183  1.0775   118.1    56.4    23.1
A. U. Tomatic                (C) Copyright 2024 MPC           M.P.E.C. 2024-L78
    
    
More information about the Iaude
mailing list